Home > Weather > Dachau > Past weeks

Flag for Germany Past Weather in Dachau, Bavaria, Germany — Yesterday and Last 2 Weeks

Now
77 °F

Scattered clouds.


Feels Like: 79 °F
Forecast: 58 / 75 °F
Wind: 3 mph from North

Location: Oberpfaffenhofen

Current Time: Jul 1, 2016 at 3:32:42 PM

Latest Report: Jul 1, 2016 at 2:50 PM


Visibility: N/A

Pressure: 30.07 "Hg (28.39 "Hg at 502m altitude)

Humidity: 51%

Dew Point: 57 °F

Location of DachauLocation

Past Weather in Dachau — Graph

°F

Dachau Temperature Yesterday

Maximum temperature yesterday: 73 °F (at 4:50 PM)
Minimum temperature yesterday: 61 °F (at 7:20 AM)
Average temperature yesterday: 67 °F

High & Low Weather Summary for the Past Weeks

 TemperatureHumidityPressure
High86 °F (Jun 23, 3:20 PM)100% (Jun 16, 6:50 PM)30.30 "Hg (Jun 16, 6:50 PM)
Low48 °F (Jun 17, 6:50 AM)32% (Jun 28, 6:50 PM)29.62 "Hg (Jun 16, 2:20 PM)
Average69 °F66%30.08 "Hg
* Reported Jun 16 2:20 PM — Jul 1 2:20 PM, Dachau, Weather by CustomWeather, © 2016

Note: Actual official high and low records may vary slightly from our data, if they occured in-between our weather recording intervals... More about our weather records

Advertising

Dachau Weather History for the Previous 24 Hours

Scroll right to see more
 ConditionsComfort  
Time TempWeatherWind HumidityBarometerVisibility
2:20 PM
Fri, Jul 1
77 °FScattered clouds.6 mph47%30.07 "HgN/A
1:50 PM77 °FSunny.8 mph44%30.09 "Hg10 mi
1:20 PM75 °FScattered clouds.5 mph50%30.09 "HgN/A
12:50 PM75 °FScattered clouds.5 mph50%30.09 "HgN/A
12:20 PM75 °FScattered clouds.3 mph57%30.09 "HgN/A
11:50 AM73 °FPassing clouds.2 mph57%30.09 "HgN/A
11:20 AM72 °FPassing clouds.3 mph61%30.09 "HgN/A
10:50 AM72 °FPassing clouds.5 mph61%30.12 "HgN/A
10:20 AM72 °FSunny.3 mph65%30.12 "Hg10 mi
9:50 AM70 °FSunny.6 mph69%30.12 "Hg10 mi
9:20 AM68 °FSunny.3 mph73%30.12 "Hg10 mi
8:50 AM66 °FSunny.7 mph78%30.12 "Hg10 mi
8:20 AM66 °FSunny.5 mph78%30.09 "Hg10 mi
7:50 AM64 °FSunny.6 mph83%30.09 "Hg10 mi
7:20 AM63 °FSunny.3 mph88%30.09 "Hg10 mi
6:50 AM59 °FSunny.5 mph100%30.09 "Hg10 mi
7:50 PM
Thu, Jun 30
70 °FSunny.1 mph78%30.04 "Hg10 mi
7:20 PM72 °FSunny.2 mph69%30.04 "Hg10 mi
6:50 PM72 °FSunny.5 mph65%30.04 "Hg10 mi
6:20 PM72 °FPartly sunny.1 mph65%30.01 "HgN/A
5:50 PM72 °FBroken clouds.3 mph65%30.01 "HgN/A
5:20 PM73 °FScattered clouds.6 mph61%30.04 "HgN/A
4:50 PM73 °FScattered clouds.6 mph61%30.04 "HgN/A
4:20 PM72 °FScattered clouds.6 mph65%30.04 "HgN/A
3:50 PM72 °FScattered clouds.6 mph61%30.04 "HgN/A
3:20 PM72 °FScattered clouds.7 mph65%30.04 "HgN/A
Weather by CustomWeather, © 2016

See weather overviewHow to use our weather pages